Location: Untermarchtal
(48.2403°N, 9.6117°E)
Time: 04:45:52
(UTC+02:00)

ISS - Pass Details

Date: 29 September 2020
Orbit: 418 x 420 km, 51.6° (Epoch: 20 October)

Event Time Altitude Azimuth Distance (km) Brightness Sun altitude
Rises 21:04:36 0° 291° (WNW) 2,370 1.7 -20.6°
Reaches altitude 10° 21:06:42 10° 293° (WNW) 1,504 0.2 -20.9°
Enters shadow 21:09:43 67° 318° (NW) 459 -3.5 -21.4°
